SCP
0 0 0 0 0 0 0 0 0 0 0 0 0 0 0 0 0 0 0 0 0 0 0 0 0 0 0 0 0 0 0 0 0 0 0 0 0 0
0 0 0 0 0 0 0 0 0 0 0 0 0 0 0 0 0 0 0 0 0 0 0 0 0 0 0 0 0 0 0 0 0 0 0 0 0 0
0 0 0 0 0 0 0 0 0 0 0 0 0 0 0 0 0 0 0 0 0 0 0 0 0 0 0 0 0 0 0 0 0 0 0 0 0 0
0 0 0 0 0 0 0 0 0 0 0 0 0 0 0 0 0 0 0 0 0 0 0 0 0 0 0 0 0 0 0 0 0 0 0 0 0 0
0 0 0 0 0 0 0 0 0 0 0 0 0 0 0 0 0 0 0 0 0 0 0 0 0 0 0 0 0 0 0 0 0 0 0 0 0 0
0 0 0 0 0 0 0 0 0 0 0 0 0 0 0 0 0 0 0 0 0 0 0 0 0 0 0 0 0 0 0 0 0 0 0 0 0 0
0 0 0 0 0 0 0 0 0 0 0 0 0 0 0 0 0 0 0 0 0 0 0 0 0 0 0 0 0 0 0 0 0 0 0 0 0 0
0 0 0 0 0 0 0 0 0 0 0 0 0 0 0 0 0 0 0 0 0 0 0 0 0 0 0 0 0 0 0 0 0 0 0 0 0 0
0 0 0 0 0 0 0 0 0 0 0 0 0 0 0 0 0 0 0 0 0 0 0 0 0 0 0 0 0 0 0 0 0 0 0 0 0 0
0 0 0 0 0 0 0 0 0 0 0 0 0 0 0 0 0 0 0 0 0 0 0 0 0 0 0 0 0 0 0 0 0 0 0 0 0 0
0 0 0 0 0 0 0 0 0 0 0 0 0 0 0 0 0 0 0 0 0 0 0 0 0 0 0 0 0 0 0 0 0 0 0 0 0 0
0 0 0 0 0 0 0 0 0 0 0 0 0 0 0 0 0 0 0 0 0 0 0 0 0 0 0 0 0 0 0 0 0 0 0 0 0 0
0 0 0 0 0 0 0 0 0 0 0 0 0 0 0 0 0 0 0 0 0 0 0 0 0 0 0 0 0 0 0 0 0 0 0 0 0 0
0 0 0 0 0 -0 0 0 0 0 0 0 0 0 0 0 0 0 0 0 0 0 0 0 0 0 0 0 0 0 0 0 0 0 0 0 0 0
0 0 0 0 0 0 0 0 0 0 0 0 0 0 0 0 0 0 0 0 0 0 0 0 0 0 0 0 0 0 0 0 0 0 0 0 0 0
0 0 0 0 0 0 0 0 0 0 0 0 0 0 0 0 0 0 0 0 0 0 0 0 0 0 0 0 0 0 0 0 0 0 0 0 0 0
0 0 0 0 0 0 0 0 0 0 0 0 0 0 0 0 0 0 0 0 0 0 0 0 0 0 0 0 0 0 0 0 0 0 0 0 0 0
0 0 0 0 0 0 0 0 0 0 0 0 0 0 0 0 0 0 0 0 0 0 0 0 0 0 0 0 0 0 0 0 0 0 0 0 0 0
0 0 0 0 0 0 0 0 0 0 0 0 0 0 0 0 0 0 0 0 0 0 0 0 0 0 0 0 0 0 0 0 0 0 0 0 0 0
0 0 0 0 0 0 0 0 0 0 0 0 0 0 0 0 0 0 0 0 0 0 0 0 0 0 0 0 0 0 0 0 0 0 0 0 0 0
0 0 0 0 0 0 0 0 0 0 0 0 0 0 0 0 0 0 0 0 0 0 0 0 0 0 0 0 0 0 0 0 0 0 0 0 0 0
0 0 0 0 0 0 0 0 0 0 0 0 0 0 0 0 0 0 0 0 0 0 0 0 0 0 0 0 0 0 0 0 0 0 0 0 0 0
0 0 0 0 0 0 0 0 0 0 0 0 0 0 0 0 0 0 0 0 0 0 0 0 0 0 0 0 0 0 0 0 0 0 0 0 0 0
Wind_Speed
1 1 1 1 1 0 1 2 2 2 1 1 1 2 1 3 2 2 4 8 7 6 6 7 7 8 8 8 8 8 8 8 9 9 9 9 9 9
1 1 1 1 1 1 1 1 2 1 1 2 1 1 2 2 3 3 4 6 6 6 6 6 6 6 7 7 7 7 7 8 8 8 8 8 8 8
3 2 2 2 1 1 1 1 1 0 2 1 1 2 2 2 2 2 2 2 5 6 5 5 5 6 6 6 6 6 6 7 7 7 8 8 8 8
2 2 2 2 2 1 1 1 1 1 2 2 2 1 2 1 1 1 1 2 3 6 5 4 4 4 5 5 5 5 6 6 7 7 7 7 7 7
2 2 2 2 2 2 2 1 1 2 2 2 2 1 1 1 1 1 2 1 1 4 4 4 4 4 4 4 4 4 5 5 6 6 6 6 6 7
2 2 1 2 2 2 2 2 2 3 2 2 2 2 1 1 1 1 1 1 0 1 1 2 3 3 2 2 3 3 3 4 4 5 5 5 5 6
3 2 1 2 3 1 0 1 2 2 2 2 2 2 2 1 1 1 1 1 1 0 1 0 1 1 2 2 2 2 3 3 4 4 4 5 5 6
3 3 3 3 4 4 4 3 2 1 2 2 1 1 1 1 1 1 1 1 1 1 1 1 0 0 0 1 3 3 2 3 4 4 5 5 5 6
2 3 2 2 3 4 5 5 3 3 2 1 1 1 1 1 1 2 1 1 1 1 1 1 0 1 0 2 4 2 3 3 4 5 5 5 5 6
2 3 3 3 2 2 4 3 3 3 1 1 0 1 1 1 1 1 1 1 1 1 1 2 1 1 1 1 4 1 2 3 4 4 5 5 6 7
3 2 3 3 3 1 3 4 4 4 4 5 6 5 5 5 3 0 0 1 1 1 0 3 2 2 2 2 2 2 1 1 3 4 5 6 8 9
3 3 2 2 4 2 3 3 3 3 3 4 3 3 3 3 0 1 1 2 2 1 0 2 2 2 2 1 1 1 2 2 3 3 4 5 7 7
4 3 3 5 5 3 2 2 2 1 2 2 2 2 2 1 1 1 1 2 2 1 1 2 2 2 3 2 2 2 2 3 2 3 3 3 4 6
3 3 4 7 6 5 3 3 3 2 2 2 2 1 1 1 0 0 0 1 2 2 1 2 3 3 4 4 3 2 3 3 4 4 4 3 4 4
2 3 5 7 6 5 4 5 5 3 2 2 2 1 1 1 1 1 1 0 1 1 2 2 3 3 4 4 4 3 3 3 3 4 5 5 4 4
3 5 6 5 3 3 5 5 3 2 2 2 1 1 1 1 1 1 1 1 1 1 1 2 3 4 4 4 4 4 3 3 3 4 5 5 4 4
4 4 4 4 4 4 3 3 3 3 3 2 2 2 2 2 1 1 1 2 2 2 1 1 2 3 4 4 4 3 4 4 4 4 5 5 5 4
5 4 4 4 4 4 4 4 4 4 3 3 3 3 3 2 2 1 2 2 2 2 2 2 2 2 3 2 2 4 4 4 4 5 5 6 6 5
5 4 4 5 5 5 5 4 4 4 3 4 3 3 3 3 2 2 2 2 3 3 3 2 2 3 4 4 2 3 4 4 5 5 5 6 7 6
5 4 4 4 4 4 4 4 4 4 4 4 4 4 3 3 3 3 3 3 3 3 3 3 3 3 5 5 5 3 4 4 4 5 5 6 6 6
5 5 4 4 4 4 4 4 4 4 4 4 4 4 4 4 3 3 3 3 4 3 4 3 3 4 5 4 5 4 2 4 5 5 6 6 6 6
5 5 5 5 4 4 4 4 4 4 4 4 4 4 4 4 4 4 4 3 3 4 4 3 3 3 4 5 6 6 5 3 4 7 7 6 6 6
6 5 5 5 5 4 4 5 5 4 4 4 4 4 4 4 4 4 4 4 4 4 4 4 3 3 4 5 6 6 6 5 4 4 4 5 8 10
Wind_Direction
206 191 198 147 171 206 212 233 249 216 153 117 86 69 70 71 66 86 80 79 72 65 60 58 56 51 49 48 46 43 41 40 38 37 37 36 36 34
189 187 155 158 139 195 226 249 272 268 118 103 128 112 85 106 89 79 85 101 85 75 68 65 62 59 55 51 48 45 44 39 36 34 32 32 32 31
175 175 162 160 162 177 211 226 242 195 138 131 132 118 126 118 122 119 114 111 98 87 75 69 68 63 58 55 51 48 44 37 32 29 28 27 26 24
177 172 155 145 153 170 184 171 136 148 160 152 147 146 140 116 130 147 128 103 97 97 89 78 73 68 63 57 51 48 44 37 33 29 23 19 18 15
181 172 156 155 160 153 163 158 140 129 138 157 145 142 158 144 148 143 132 118 116 123 126 109 85 71 66 58 51 46 42 36 30 27 22 16 11 8
178 177 171 171 176 162 165 162 154 145 148 156 153 152 146 153 194 194 167 153 137 88 104 122 129 138 113 73 56 47 38 29 20 13 8 3 358 356
164 158 119 75 43 58 151 170 163 163 159 161 166 164 157 173 212 226 236 210 145 51 292 189 168 180 157 137 98 37 19 11 3 355 352 350 347 343
170 163 149 144 120 106 85 55 19 196 173 168 179 191 181 194 221 229 235 248 213 105 284 290 311 308 20 56 65 44 9 357 354 347 340 339 336 330
179 165 144 142 164 152 135 133 100 51 351 271 215 262 269 259 248 241 245 264 306 62 283 264 220 293 323 84 89 39 6 350 344 340 337 334 327 318
179 173 167 158 145 163 148 139 124 109 90 227 157 61 10 342 281 282 275 253 222 117 291 282 280 293 297 141 117 52 350 337 334 333 332 328 322 310
168 169 171 155 116 188 167 152 141 125 95 73 53 66 60 36 355 287 253 247 244 161 242 287 293 292 263 224 147 165 239 291 316 321 322 322 315 298
164 156 120 138 137 181 185 172 168 150 146 142 142 150 147 122 200 264 275 275 282 256 94 290 297 294 270 231 271 242 234 220 245 270 304 321 324 305
172 169 150 142 147 169 211 182 152 172 170 171 163 151 149 138 156 239 295 293 291 302 16 287 292 288 287 285 277 290 302 299 279 260 252 287 308 306
186 176 150 152 156 168 178 120 131 186 185 183 182 178 181 180 169 152 301 300 309 317 333 291 293 292 287 284 290 298 299 305 308 310 313 289 263 250
166 121 139 160 165 165 154 156 174 187 185 198 200 195 194 179 155 165 219 243 282 306 320 303 292 290 283 284 292 297 299 304 308 313 317 318 312 304
160 137 142 153 177 151 157 174 198 195 207 202 196 186 177 189 200 211 225 226 248 258 291 293 288 285 279 282 283 289 299 302 306 307 309 305 304 304
164 162 166 169 179 183 186 186 191 189 199 203 198 195 199 209 213 227 251 251 255 268 269 277 286 281 274 278 276 282 291 296 304 310 306 301 300 302
170 178 185 191 194 195 197 199 202 201 201 201 203 208 212 215 212 222 238 241 253 266 275 277 269 265 260 236 260 289 294 302 306 303 297 299 299 306
190 197 200 202 206 206 206 209 209 206 204 205 209 211 212 215 219 219 228 246 255 263 271 273 268 272 278 283 225 224 286 296 295 293 294 296 297 306
210 210 211 211 208 208 206 207 210 209 208 208 211 212 212 217 220 225 229 243 258 263 265 264 266 272 275 288 291 272 236 276 288 291 295 294 293 291
211 214 214 212 211 209 208 211 210 211 213 212 212 212 213 220 224 227 230 237 249 255 266 271 272 265 270 274 274 275 264 227 261 285 299 299 302 299
211 212 211 212 211 211 209 210 212 212 213 216 215 212 212 219 224 227 229 232 241 255 267 278 283 263 260 264 275 284 285 281 243 244 255 273 295 298
214 213 208 207 210 208 208 211 215 215 214 216 214 212 214 219 225 227 227 231 239 250 261 266 266 267 267 267 273 278 286 291 292 289 276 254 255 267